Year,Month,Day,Hour,Minute,Value (Times are PST for temperature in C)
2009,08,23,00,00,14.30
2009,08,23,00,01,14.20
2009,08,23,00,02,14.20
2009,08,23,00,03,14.20
2009,08,23,00,04,14.10
2009,08,23,00,05,14.10
2009,08,23,00,06,14.00
2009,08,23,00,07,14.00
2009,08,23,00,08,13.90
2009,08,23,00,09,13.90
2009,08,23,00,10,13.90
2009,08,23,00,11,13.80
2009,08,23,00,12,13.80
2009,08,23,00,13,13.80
2009,08,23,00,14,13.80
2009,08,23,00,15,13.80
2009,08,23,00,16,13.80
2009,08,23,00,17,13.80
2009,08,23,00,18,13.70
2009,08,23,00,19,13.70
2009,08,23,00,20,13.70
2009,08,23,00,21,13.70
2009,08,23,00,22,13.70
2009,08,23,00,23,13.70
2009,08,23,00,24,13.70
2009,08,23,00,25,13.60
2009,08,23,00,26,13.60
2009,08,23,00,27,13.60
2009,08,23,00,28,13.50
2009,08,23,00,29,13.50
2009,08,23,00,30,13.50
2009,08,23,00,31,13.50
2009,08,23,00,32,13.50
2009,08,23,00,33,13.40
2009,08,23,00,34,13.40
2009,08,23,00,35,13.40
2009,08,23,00,36,13.40
2009,08,23,00,37,13.40
2009,08,23,00,38,13.40
2009,08,23,00,39,13.30
2009,08,23,00,40,13.30
2009,08,23,00,41,13.30
2009,08,23,00,42,13.30
2009,08,23,00,43,13.30
2009,08,23,00,44,13.30
2009,08,23,00,45,13.30
2009,08,23,00,46,13.30
2009,08,23,00,47,13.30
2009,08,23,00,48,13.30
2009,08,23,00,49,13.30
2009,08,23,00,50,13.20
2009,08,23,00,51,13.20
2009,08,23,00,52,13.20
2009,08,23,00,53,13.20
2009,08,23,00,54,13.20
2009,08,23,00,55,13.20
2009,08,23,00,56,13.20
2009,08,23,00,57,13.20
2009,08,23,00,58,13.30
2009,08,23,00,59,13.30
2009,08,23,01,00,13.30
2009,08,23,01,01,13.20
2009,08,23,01,02,13.20
2009,08,23,01,03,13.20
2009,08,23,01,04,13.20
2009,08,23,01,05,13.30
2009,08,23,01,06,13.30
2009,08,23,01,07,13.30
2009,08,23,01,08,13.30
2009,08,23,01,09,13.30
2009,08,23,01,10,13.30
2009,08,23,01,11,13.30
2009,08,23,01,12,13.30
2009,08,23,01,13,13.30
2009,08,23,01,14,13.30
2009,08,23,01,15,13.30
2009,08,23,01,16,13.30
2009,08,23,01,17,13.30
2009,08,23,01,18,13.30
2009,08,23,01,19,13.30
2009,08,23,01,20,13.30
2009,08,23,01,21,13.30
2009,08,23,01,22,13.30
2009,08,23,01,23,13.30
2009,08,23,01,24,13.30
2009,08,23,01,25,13.30
2009,08,23,01,26,13.30
2009,08,23,01,27,13.30
2009,08,23,01,28,13.30
2009,08,23,01,29,13.30
2009,08,23,01,30,13.30
2009,08,23,01,31,13.30
2009,08,23,01,32,13.30
2009,08,23,01,33,13.30
2009,08,23,01,34,13.30
2009,08,23,01,35,13.30
2009,08,23,01,36,13.30
2009,08,23,01,37,13.30
2009,08,23,01,38,13.30
2009,08,23,01,39,13.30
2009,08,23,01,40,13.30
2009,08,23,01,41,13.30
2009,08,23,01,42,13.30
2009,08,23,01,43,13.30
2009,08,23,01,44,13.30
2009,08,23,01,45,13.30
2009,08,23,01,46,13.30
2009,08,23,01,47,13.20
2009,08,23,01,48,13.20
2009,08,23,01,49,13.20
2009,08,23,01,50,13.20
2009,08,23,01,51,13.20
2009,08,23,01,52,13.20
2009,08,23,01,53,13.10
2009,08,23,01,54,13.10
2009,08,23,01,55,13.10
2009,08,23,01,56,13.10
2009,08,23,01,57,13.10
2009,08,23,01,58,13.00
2009,08,23,01,59,13.00
2009,08,23,02,00,13.00
2009,08,23,02,01,13.00
2009,08,23,02,02,13.00
2009,08,23,02,03,13.00
2009,08,23,02,04,13.00
2009,08,23,02,05,13.00
2009,08,23,02,06,13.00
2009,08,23,02,07,13.00
2009,08,23,02,08,13.00
2009,08,23,02,09,13.00
2009,08,23,02,10,13.00
2009,08,23,02,11,13.00
2009,08,23,02,12,13.10
2009,08,23,02,13,13.10
2009,08,23,02,14,13.10
2009,08,23,02,15,13.00
2009,08,23,02,16,13.00
2009,08,23,02,17,13.00
2009,08,23,02,18,13.00
2009,08,23,02,19,13.00
2009,08,23,02,20,13.00
2009,08,23,02,21,13.00
2009,08,23,02,22,13.00
2009,08,23,02,23,13.00
2009,08,23,02,24,13.00
2009,08,23,02,25,13.00
2009,08,23,02,26,13.00
2009,08,23,02,27,13.00
2009,08,23,02,28,13.00
2009,08,23,02,29,12.90
2009,08,23,02,30,12.90
2009,08,23,02,31,12.90
2009,08,23,02,32,12.90
2009,08,23,02,33,12.80
2009,08,23,02,34,12.80
2009,08,23,02,35,12.80
2009,08,23,02,36,12.80
2009,08,23,02,37,12.80
2009,08,23,02,38,12.80
2009,08,23,02,39,12.80
2009,08,23,02,40,12.80
2009,08,23,02,41,12.80
2009,08,23,02,42,12.80
2009,08,23,02,43,12.80
2009,08,23,02,44,12.80
2009,08,23,02,45,12.70
2009,08,23,02,46,12.70
2009,08,23,02,47,12.70
2009,08,23,02,48,12.70
2009,08,23,02,49,12.70
2009,08,23,02,50,12.70
2009,08,23,02,51,12.70
2009,08,23,02,52,12.70
2009,08,23,02,53,12.70
2009,08,23,02,54,12.70
2009,08,23,02,55,12.70
2009,08,23,02,56,12.70
2009,08,23,02,57,12.70
2009,08,23,02,58,12.70
2009,08,23,02,59,12.70
2009,08,23,03,00,12.70
2009,08,23,03,01,12.60
2009,08,23,03,02,12.60
2009,08,23,03,03,12.50
2009,08,23,03,04,12.50
2009,08,23,03,05,12.50
2009,08,23,03,06,12.50
2009,08,23,03,07,12.50
2009,08,23,03,08,12.50
2009,08,23,03,09,12.50
2009,08,23,03,10,12.50
2009,08,23,03,11,12.60
2009,08,23,03,12,12.60
2009,08,23,03,13,12.60
2009,08,23,03,14,12.60
2009,08,23,03,15,12.60
2009,08,23,03,16,12.60
2009,08,23,03,17,12.60
2009,08,23,03,18,12.60
2009,08,23,03,19,12.60
2009,08,23,03,20,12.60
2009,08,23,03,21,12.60
2009,08,23,03,22,12.60
2009,08,23,03,23,12.60
2009,08,23,03,24,12.60
2009,08,23,07,39,13.90
2009,08,23,07,40,13.90
2009,08,23,07,41,13.90
2009,08,23,07,42,13.90
2009,08,23,07,43,13.90
2009,08,23,07,44,13.90
2009,08,23,07,45,13.90
2009,08,23,07,46,13.90
2009,08,23,07,47,13.90
2009,08,23,07,48,13.90
2009,08,23,07,49,13.90
2009,08,23,07,50,13.90
2009,08,23,07,51,13.90
2009,08,23,07,52,13.90
2009,08,23,07,53,13.90
2009,08,23,07,54,13.90
2009,08,23,07,55,14.00
2009,08,23,07,56,14.00
2009,08,23,07,57,14.00
2009,08,23,07,58,14.00
2009,08,23,07,59,14.10
2009,08,23,08,00,14.10
2009,08,23,08,01,14.10
2009,08,23,08,02,14.20
2009,08,23,08,03,14.20
2009,08,23,08,04,14.20
2009,08,23,08,05,14.20
2009,08,23,08,06,14.20
2009,08,23,08,07,14.20
2009,08,23,08,08,14.20
2009,08,23,08,09,14.20
2009,08,23,08,10,14.20
2009,08,23,08,11,14.30
2009,08,23,08,12,14.30
2009,08,23,08,13,14.20
2009,08,23,08,14,14.20
2009,08,23,08,15,14.30
2009,08,23,08,16,14.30
2009,08,23,08,17,14.30
2009,08,23,08,18,14.40
2009,08,23,08,19,14.40
2009,08,23,08,20,14.40
2009,08,23,08,21,14.40
2009,08,23,08,22,14.40
2009,08,23,08,23,14.30
2009,08,23,08,24,14.30
2009,08,23,08,25,14.20
2009,08,23,08,26,14.20
2009,08,23,08,27,14.20
2009,08,23,08,28,14.30
2009,08,23,08,29,14.30
2009,08,23,08,30,14.40
2009,08,23,08,31,14.40
2009,08,23,08,32,14.50
2009,08,23,08,33,14.50
2009,08,23,08,34,14.50
2009,08,23,08,35,14.60
2009,08,23,08,36,14.60
2009,08,23,08,37,14.70
2009,08,23,08,38,14.80
2009,08,23,08,39,14.80
2009,08,23,08,40,14.90
2009,08,23,08,41,14.90
2009,08,23,08,42,15.00
2009,08,23,08,43,15.00
2009,08,23,08,44,15.10
2009,08,23,08,45,15.10
2009,08,23,08,46,15.10
2009,08,23,08,47,15.10
2009,08,23,08,48,15.10
2009,08,23,08,49,15.00
2009,08,23,08,50,15.00
2009,08,23,08,51,15.10
2009,08,23,08,52,15.10
2009,08,23,08,53,15.10
2009,08,23,08,54,15.20
2009,08,23,08,55,15.20
2009,08,23,08,56,15.30
2009,08,23,08,57,15.30
2009,08,23,08,58,15.30
2009,08,23,08,59,15.30
2009,08,23,09,00,15.30
2009,08,23,09,01,15.40
2009,08,23,09,02,15.40
2009,08,23,09,03,15.50
2009,08,23,09,04,15.60
2009,08,23,09,05,15.60
2009,08,23,09,06,15.70
2009,08,23,09,07,15.80
2009,08,23,09,08,15.80
2009,08,23,09,09,15.90
2009,08,23,09,10,15.90
2009,08,23,09,11,15.80
2009,08,23,09,12,15.80
2009,08,23,09,13,15.80
2009,08,23,09,14,15.90
2009,08,23,09,15,15.90
2009,08,23,09,16,16.00
2009,08,23,09,17,16.10
2009,08,23,09,18,16.10
2009,08,23,09,19,16.10
2009,08,23,09,20,16.20
2009,08,23,09,21,16.20
2009,08,23,09,22,16.10
2009,08,23,09,23,16.10
2009,08,23,09,24,16.10
2009,08,23,09,25,16.10
2009,08,23,09,26,16.10
2009,08,23,09,27,16.10
2009,08,23,09,28,16.10
2009,08,23,09,29,16.20
2009,08,23,09,30,16.20
2009,08,23,09,31,16.20
2009,08,23,09,32,16.20
2009,08,23,09,33,16.20
2009,08,23,09,34,16.20
2009,08,23,09,35,16.20
2009,08,23,09,36,16.30
2009,08,23,09,37,16.30
2009,08,23,09,38,16.30
2009,08,23,09,39,16.30
2009,08,23,09,40,16.40
2009,08,23,09,41,16.30
2009,08,23,09,42,16.30
2009,08,23,09,43,16.20
2009,08,23,09,44,16.30
2009,08,23,09,45,16.30
2009,08,23,09,46,16.30
2009,08,23,09,47,16.30
2009,08,23,09,48,16.30
2009,08,23,09,49,16.30
2009,08,23,09,50,16.30
2009,08,23,09,51,16.30
2009,08,23,09,52,16.20
2009,08,23,09,53,16.30
2009,08,23,09,54,16.30
2009,08,23,09,55,16.30
2009,08,23,09,56,16.30
2009,08,23,09,57,16.40
2009,08,23,09,58,16.40
2009,08,23,09,59,16.40
2009,08,23,10,00,16.50
2009,08,23,10,01,16.60
2009,08,23,10,02,16.70
2009,08,23,10,03,16.70
2009,08,23,10,04,16.70
2009,08,23,10,05,16.60
2009,08,23,10,06,16.70
2009,08,23,10,07,16.70
2009,08,23,10,08,16.70
2009,08,23,10,09,16.60
2009,08,23,10,10,16.50
2009,08,23,10,11,16.60
2009,08,23,10,12,16.60
2009,08,23,10,13,16.60
2009,08,23,10,14,16.70
2009,08,23,10,15,16.70
2009,08,23,10,16,16.70
2009,08,23,10,17,16.70
2009,08,23,10,18,16.70
2009,08,23,10,19,16.70
2009,08,23,10,20,16.70
2009,08,23,10,21,16.70
2009,08,23,10,22,16.80
2009,08,23,10,23,16.80
2009,08,23,10,24,16.90
2009,08,23,10,25,17.00
2009,08,23,10,26,17.20
2009,08,23,10,27,17.30
2009,08,23,10,28,17.30
2009,08,23,10,29,17.30
2009,08,23,10,30,17.30
2009,08,23,10,31,17.30
2009,08,23,10,32,17.30
2009,08,23,10,33,17.30
2009,08,23,10,34,17.30
2009,08,23,10,35,17.20
2009,08,23,10,36,17.20
2009,08,23,10,37,17.20
2009,08,23,10,38,17.20
2009,08,23,10,39,17.20
2009,08,23,10,40,17.10
2009,08,23,10,41,17.10
2009,08,23,10,42,17.10
2009,08,23,10,43,17.00
2009,08,23,10,44,17.00
2009,08,23,10,45,17.10
2009,08,23,10,46,17.10
2009,08,23,10,47,17.10
2009,08,23,10,48,17.20
2009,08,23,10,49,17.20
2009,08,23,10,50,17.20
2009,08,23,10,51,17.30
2009,08,23,10,52,17.20
2009,08,23,10,53,17.20
2009,08,23,10,54,17.20
2009,08,23,10,55,17.30
2009,08,23,10,56,17.30
2009,08,23,10,57,17.30
2009,08,23,10,58,17.30
2009,08,23,10,59,17.30
2009,08,23,11,00,17.40
2009,08,23,11,01,17.50
2009,08,23,11,02,17.50
2009,08,23,11,03,17.50
2009,08,23,11,04,17.40
2009,08,23,11,05,17.40
2009,08,23,11,06,17.30
2009,08,23,11,07,17.30
2009,08,23,11,08,17.30
2009,08,23,11,09,17.30
2009,08,23,11,10,17.40
2009,08,23,11,11,17.40
2009,08,23,11,12,17.50
2009,08,23,11,13,17.50
2009,08,23,11,14,17.60
2009,08,23,11,15,17.70
2009,08,23,11,16,17.80
2009,08,23,11,17,17.80
2009,08,23,11,18,17.80
2009,08,23,11,19,17.80
2009,08,23,11,20,17.90
2009,08,23,11,21,18.10
2009,08,23,11,22,18.10
2009,08,23,11,23,18.10
2009,08,23,11,24,17.90
2009,08,23,11,25,17.90
2009,08,23,11,26,17.90
2009,08,23,11,27,17.90
2009,08,23,11,28,17.90
2009,08,23,11,29,17.90
2009,08,23,11,30,17.90
2009,08,23,11,31,17.90
2009,08,23,11,32,17.90
2009,08,23,11,33,17.90
2009,08,23,11,34,17.90
2009,08,23,11,35,17.90
2009,08,23,11,36,18.00
2009,08,23,11,37,18.10
2009,08,23,11,38,18.10
2009,08,23,11,39,18.00
2009,08,23,11,40,18.00
2009,08,23,11,41,18.10
2009,08,23,11,42,18.10
2009,08,23,11,43,18.20
2009,08,23,11,44,18.20
2009,08,23,11,45,18.10
2009,08,23,11,46,18.10
2009,08,23,11,47,18.10
2009,08,23,11,48,18.10
2009,08,23,11,49,18.20
2009,08,23,11,50,18.20
2009,08,23,11,51,18.20
2009,08,23,11,52,18.20
2009,08,23,11,53,18.20
2009,08,23,11,54,18.20
2009,08,23,11,55,18.20
2009,08,23,11,56,18.20
2009,08,23,11,57,18.20
2009,08,23,11,58,18.20
2009,08,23,11,59,18.20
2009,08,23,12,00,18.00
2009,08,23,12,01,18.00
2009,08,23,12,02,18.10
2009,08,23,12,03,18.10
2009,08,23,12,04,18.10
2009,08,23,12,05,18.00
2009,08,23,12,06,18.00
2009,08,23,12,07,18.20
2009,08,23,12,08,18.20
2009,08,23,12,09,18.20
2009,08,23,12,10,18.20
2009,08,23,12,11,18.20
2009,08,23,12,12,18.20
2009,08,23,12,13,18.30
2009,08,23,12,14,18.30
2009,08,23,12,15,18.30
2009,08,23,12,16,18.30
2009,08,23,12,17,18.40
2009,08,23,12,18,18.50
2009,08,23,12,19,18.60
2009,08,23,12,20,18.60
2009,08,23,12,21,18.60
2009,08,23,12,22,18.60
2009,08,23,12,23,18.70
2009,08,23,12,24,18.70
2009,08,23,12,25,18.60
2009,08,23,12,26,18.60
2009,08,23,12,27,18.70
2009,08,23,12,28,18.90
2009,08,23,12,29,19.00
2009,08,23,12,30,19.10
2009,08,23,12,31,19.10
2009,08,23,12,32,19.00
2009,08,23,12,33,18.80
2009,08,23,12,34,18.80
2009,08,23,12,35,18.80
2009,08,23,12,36,18.80
2009,08,23,12,37,18.80
2009,08,23,12,38,19.00
2009,08,23,12,39,19.10
2009,08,23,12,40,19.10
2009,08,23,12,41,19.10
2009,08,23,12,42,19.10
2009,08,23,12,43,18.90
2009,08,23,12,44,18.90
2009,08,23,12,45,18.90
2009,08,23,12,46,18.90
2009,08,23,12,47,18.90
2009,08,23,12,48,19.10
2009,08,23,12,49,19.10
2009,08,23,12,50,19.20
2009,08,23,12,51,19.20
2009,08,23,12,52,19.20
2009,08,23,12,53,19.20
2009,08,23,12,54,19.20
2009,08,23,12,55,19.20
2009,08,23,12,56,19.30
2009,08,23,12,57,19.10
2009,08,23,12,58,19.10
2009,08,23,12,59,19.10
2009,08,23,13,00,19.10
2009,08,23,13,01,19.20
2009,08,23,13,02,19.30
2009,08,23,13,03,19.30
2009,08,23,13,04,19.30
2009,08,23,13,05,19.30
2009,08,23,13,06,19.40
2009,08,23,13,07,19.60
2009,08,23,13,08,19.60
2009,08,23,13,09,19.70
2009,08,23,13,10,19.80
2009,08,23,13,11,19.90
2009,08,23,13,12,20.00
2009,08,23,13,13,20.10
2009,08,23,13,14,20.10
2009,08,23,13,15,20.00
2009,08,23,13,16,19.80
2009,08,23,13,17,19.70
2009,08,23,13,18,19.50
2009,08,23,13,19,19.40
2009,08,23,13,20,19.20
2009,08,23,13,21,19.10
2009,08,23,13,22,19.10
2009,08,23,13,23,19.10
2009,08,23,13,24,19.20
2009,08,23,13,25,19.40
2009,08,23,13,26,19.50
2009,08,23,13,27,19.60
2009,08,23,13,28,19.60
2009,08,23,13,29,19.60
2009,08,23,13,30,19.60
2009,08,23,13,31,19.70
2009,08,23,13,32,19.70
2009,08,23,13,33,19.80
2009,08,23,13,34,19.80
2009,08,23,13,35,19.80
2009,08,23,13,36,19.80
2009,08,23,13,37,19.90
2009,08,23,13,38,19.80
2009,08,23,13,39,19.70
2009,08,23,13,40,19.60
2009,08,23,13,41,19.50
2009,08,23,13,42,19.70
2009,08,23,13,43,19.70
2009,08,23,13,44,19.70
2009,08,23,13,45,19.60
2009,08,23,13,46,19.40
2009,08,23,13,47,19.30
2009,08,23,13,48,19.30
2009,08,23,13,49,19.30
2009,08,23,13,50,19.40
2009,08,23,13,51,19.50
2009,08,23,13,52,19.60
2009,08,23,13,53,19.50
2009,08,23,13,54,19.40
2009,08,23,13,55,19.40
2009,08,23,13,56,19.30
2009,08,23,13,57,19.40
2009,08,23,13,58,19.60
2009,08,23,13,59,19.80
2009,08,23,14,00,19.90
2009,08,23,14,01,19.80
2009,08,23,14,02,19.80
2009,08,23,14,03,19.90
2009,08,23,14,04,20.00
2009,08,23,14,05,20.10
2009,08,23,14,06,20.10
2009,08,23,14,07,19.90
2009,08,23,14,08,19.90
2009,08,23,14,09,19.90
2009,08,23,14,10,19.90
2009,08,23,14,11,20.00
2009,08,23,14,12,20.10
2009,08,23,14,13,20.10
2009,08,23,14,14,19.90
2009,08,23,14,15,19.70
2009,08,23,14,16,19.70
2009,08,23,14,17,19.60
2009,08,23,14,18,19.70
2009,08,23,14,19,19.80
2009,08,23,14,20,19.80
2009,08,23,14,21,19.80
2009,08,23,14,22,19.80
2009,08,23,14,23,19.70
2009,08,23,14,24,19.60
2009,08,23,14,25,19.70
2009,08,23,14,26,19.80
2009,08,23,14,27,19.80
2009,08,23,14,28,19.80
2009,08,23,14,29,19.80
2009,08,23,14,30,19.80
2009,08,23,14,31,19.80
2009,08,23,14,32,19.90
2009,08,23,14,33,20.00
2009,08,23,14,34,20.10
2009,08,23,14,35,20.20
2009,08,23,14,36,20.10
2009,08,23,14,37,20.20
2009,08,23,14,38,20.20
2009,08,23,14,39,20.20
2009,08,23,14,40,20.10
2009,08,23,14,41,20.00
2009,08,23,14,42,19.90
2009,08,23,14,43,20.00
2009,08,23,14,44,20.10
2009,08,23,14,45,20.00
2009,08,23,14,46,19.90
2009,08,23,14,47,19.90
2009,08,23,14,48,19.90
2009,08,23,14,49,19.90
2009,08,23,14,50,20.10
2009,08,23,14,51,20.20
2009,08,23,14,52,20.20
2009,08,23,14,53,20.20
2009,08,23,14,54,20.20
2009,08,23,14,55,20.20
2009,08,23,14,56,20.30
2009,08,23,14,57,20.40
2009,08,23,14,58,20.60
2009,08,23,14,59,20.60
2009,08,23,15,00,20.50
2009,08,23,15,01,20.30
2009,08,23,15,02,20.20
2009,08,23,15,03,20.00
2009,08,23,15,04,19.90
2009,08,23,15,05,19.90
2009,08,23,15,06,19.90
2009,08,23,15,07,19.90
2009,08,23,15,08,20.10
2009,08,23,15,09,20.20
2009,08,23,15,10,20.50
2009,08,23,15,11,20.50
2009,08,23,15,12,20.50
2009,08,23,15,13,20.50
2009,08,23,15,14,20.40
2009,08,23,15,15,20.50
2009,08,23,15,16,20.50
2009,08,23,15,17,20.40
2009,08,23,15,18,20.30
2009,08,23,15,19,20.30
2009,08,23,15,20,20.40
2009,08,23,15,21,20.40
2009,08,23,15,22,20.30
2009,08,23,15,23,20.30
2009,08,23,15,24,20.30
2009,08,23,15,25,20.20
2009,08,23,15,26,20.20
2009,08,23,15,27,20.20
2009,08,23,15,28,20.10
2009,08,23,15,29,20.00
2009,08,23,15,30,19.90
2009,08,23,15,31,19.90
2009,08,23,15,32,19.90
2009,08,23,15,33,20.00
2009,08,23,15,34,20.10
2009,08,23,15,35,20.10
2009,08,23,15,36,20.20
2009,08,23,15,37,20.40
2009,08,23,15,38,20.50
2009,08,23,15,39,20.50
2009,08,23,15,40,20.40
2009,08,23,15,41,20.40
2009,08,23,15,42,20.40
2009,08,23,15,43,20.30
2009,08,23,15,44,20.30
2009,08,23,15,45,20.30
2009,08,23,15,46,20.30
2009,08,23,15,47,20.30
2009,08,23,15,48,20.30
2009,08,23,15,49,20.30
2009,08,23,15,50,20.20
2009,08,23,15,51,20.00
2009,08,23,15,52,19.90
2009,08,23,15,53,19.90
2009,08,23,15,54,19.90
2009,08,23,15,55,20.10
2009,08,23,15,56,20.00
2009,08,23,15,57,19.90
2009,08,23,15,58,19.90
2009,08,23,15,59,19.90
2009,08,23,16,00,19.90
2009,08,23,16,01,19.80
2009,08,23,16,02,19.80
2009,08,23,16,03,19.90
2009,08,23,16,04,19.90
2009,08,23,16,05,19.90
2009,08,23,16,06,19.90
2009,08,23,16,07,19.90
2009,08,23,16,08,19.90
2009,08,23,16,09,19.90
2009,08,23,16,10,20.00
2009,08,23,16,11,19.90
2009,08,23,16,12,19.90
2009,08,23,16,13,19.90
2009,08,23,16,14,20.00
2009,08,23,16,15,20.10
2009,08,23,16,16,20.20
2009,08,23,16,17,20.10
2009,08,23,16,18,20.00
2009,08,23,16,19,19.90
2009,08,23,16,20,19.90
2009,08,23,16,21,19.90
2009,08,23,16,22,19.90
2009,08,23,16,23,19.80
2009,08,23,16,24,19.90
2009,08,23,16,25,19.90
2009,08,23,16,26,19.90
2009,08,23,16,27,19.90
2009,08,23,16,28,20.10
2009,08,23,16,29,20.10
2009,08,23,16,30,20.00
2009,08,23,16,31,19.90
2009,08,23,16,32,19.60
2009,08,23,16,33,19.60
2009,08,23,16,34,19.60
2009,08,23,16,35,19.70
2009,08,23,16,36,19.80
2009,08,23,16,37,19.90
2009,08,23,16,38,19.90
2009,08,23,16,39,20.00
2009,08,23,16,40,20.20
2009,08,23,16,41,20.00
2009,08,23,16,42,19.90
2009,08,23,16,43,20.10
2009,08,23,16,44,20.00
2009,08,23,16,45,19.90
2009,08,23,16,46,19.90
2009,08,23,16,47,19.70
2009,08,23,16,48,19.60
2009,08,23,16,49,19.40
2009,08,23,16,50,19.40
2009,08,23,16,51,19.40
2009,08,23,16,52,19.20
2009,08,23,16,53,19.10
2009,08,23,16,54,19.00
2009,08,23,16,55,18.90
2009,08,23,16,56,18.70
2009,08,23,16,57,18.60
2009,08,23,16,58,18.50
2009,08,23,16,59,18.50
2009,08,23,17,00,18.50
2009,08,23,17,01,18.30
2009,08,23,17,02,18.30
2009,08,23,17,03,18.30
2009,08,23,17,04,18.30
2009,08,23,17,05,18.30
2009,08,23,17,06,18.30
2009,08,23,17,07,18.30
2009,08,23,17,08,18.20
2009,08,23,17,09,18.00
2009,08,23,17,10,17.90
2009,08,23,17,11,17.80
2009,08,23,17,12,17.80
2009,08,23,17,13,17.70
2009,08,23,17,14,17.50
2009,08,23,17,15,17.50
2009,08,23,17,16,17.40
2009,08,23,17,17,17.50
2009,08,23,17,18,17.40
2009,08,23,17,19,17.30
2009,08,23,17,20,17.30
2009,08,23,17,21,17.30
2009,08,23,17,22,17.40
2009,08,23,17,23,17.50
2009,08,23,17,24,17.60
2009,08,23,17,25,17.70
2009,08,23,17,26,17.70
2009,08,23,17,27,17.70
2009,08,23,17,28,17.70
2009,08,23,17,29,17.70
2009,08,23,17,30,17.70
2009,08,23,17,31,17.80
2009,08,23,17,32,17.70
2009,08,23,17,33,17.70
2009,08,23,17,34,17.70
2009,08,23,17,35,17.70
2009,08,23,17,36,17.60
2009,08,23,17,37,17.60
2009,08,23,17,38,17.70
2009,08,23,17,39,17.90
2009,08,23,17,40,17.90
2009,08,23,17,41,17.90
2009,08,23,17,42,17.90
2009,08,23,17,43,17.90
2009,08,23,17,44,17.80
2009,08,23,17,45,17.70
2009,08,23,17,46,17.70
2009,08,23,17,47,17.70
2009,08,23,17,48,17.80
2009,08,23,17,49,17.80
2009,08,23,17,50,17.90
2009,08,23,17,51,17.90
2009,08,23,17,52,17.90
2009,08,23,17,53,17.90
2009,08,23,17,54,17.90
2009,08,23,17,55,18.00
2009,08,23,17,56,18.10
2009,08,23,17,57,18.20
2009,08,23,17,58,18.20
2009,08,23,17,59,18.30
2009,08,23,18,00,18.30
2009,08,23,18,01,18.30
2009,08,23,18,02,18.30
2009,08,23,18,03,18.40
2009,08,23,18,04,18.40
2009,08,23,18,05,18.50
2009,08,23,18,06,18.60
2009,08,23,18,07,18.70
2009,08,23,18,08,18.70
2009,08,23,18,09,18.70
2009,08,23,18,10,18.70
2009,08,23,18,11,18.70
2009,08,23,18,12,18.70
2009,08,23,18,13,18.70
2009,08,23,18,14,18.70
2009,08,23,18,15,18.70
2009,08,23,18,16,18.70
2009,08,23,18,17,18.70
2009,08,23,18,18,18.70
2009,08,23,18,19,18.70
2009,08,23,18,20,18.80
2009,08,23,18,21,18.80
2009,08,23,18,22,18.80
2009,08,23,18,23,18.70
2009,08,23,18,24,18.70
2009,08,23,18,25,18.70
2009,08,23,18,26,18.70
2009,08,23,18,27,18.70
2009,08,23,18,28,18.70
2009,08,23,18,29,18.70
2009,08,23,18,30,18.70
2009,08,23,18,31,18.70
2009,08,23,18,32,18.70
2009,08,23,18,33,18.70
2009,08,23,18,34,18.70
2009,08,23,18,35,18.70
2009,08,23,18,36,18.80
2009,08,23,18,37,18.90
2009,08,23,18,38,18.90
2009,08,23,18,39,19.00
2009,08,23,18,40,19.10
2009,08,23,18,41,19.10
2009,08,23,18,42,19.20
2009,08,23,18,43,19.20
2009,08,23,18,44,19.30
2009,08,23,18,45,19.30
2009,08,23,18,46,19.30
2009,08,23,18,47,19.30
2009,08,23,18,48,19.20
2009,08,23,18,49,19.20
2009,08,23,18,50,19.20
2009,08,23,18,51,19.20
2009,08,23,18,52,19.20
2009,08,23,18,53,19.20
2009,08,23,18,54,19.20
2009,08,23,18,55,19.20
2009,08,23,18,56,19.30
2009,08,23,18,57,19.30
2009,08,23,18,58,19.40
2009,08,23,18,59,19.40
2009,08,23,19,00,19.40
2009,08,23,19,01,19.40
2009,08,23,19,02,19.40
2009,08,23,19,03,19.40
2009,08,23,19,04,19.30
2009,08,23,19,05,19.30
2009,08,23,19,06,19.30
2009,08,23,19,07,19.30
2009,08,23,19,08,19.20
2009,08,23,19,09,19.20
2009,08,23,19,10,19.10
2009,08,23,19,11,19.10
2009,08,23,19,12,19.10
2009,08,23,19,13,19.10
2009,08,23,19,14,19.10
2009,08,23,19,15,19.10
2009,08,23,19,16,19.10
2009,08,23,19,17,19.10
2009,08,23,19,18,19.10
2009,08,23,19,19,19.10
2009,08,23,19,20,19.10
2009,08,23,19,21,19.10
2009,08,23,19,22,19.10
2009,08,23,19,23,19.00
2009,08,23,19,24,18.90
2009,08,23,19,25,18.90
2009,08,23,19,26,18.90
2009,08,23,19,27,18.80
2009,08,23,19,28,18.70
2009,08,23,19,29,18.70
2009,08,23,19,30,18.60
2009,08,23,19,31,18.60
2009,08,23,19,32,18.50
2009,08,23,19,33,18.50
2009,08,23,19,34,18.40
2009,08,23,19,35,18.40
2009,08,23,19,36,18.30
2009,08,23,19,37,18.30
2009,08,23,19,38,18.30
2009,08,23,19,39,18.30
2009,08,23,19,40,18.30
2009,08,23,19,41,18.30
2009,08,23,19,42,18.30
2009,08,23,19,43,18.30
2009,08,23,19,44,18.20
2009,08,23,19,45,18.20
2009,08,23,19,46,18.20
2009,08,23,19,47,18.10
2009,08,23,19,48,18.10
2009,08,23,19,49,18.10
2009,08,23,19,50,18.00
2009,08,23,19,51,17.90
2009,08,23,19,52,17.90
2009,08,23,19,53,17.90
2009,08,23,19,54,17.80
2009,08,23,19,55,17.70
2009,08,23,19,56,17.70
2009,08,23,19,57,17.60
2009,08,23,19,58,17.60
2009,08,23,19,59,17.60
2009,08,23,20,00,17.50
2009,08,23,20,01,17.50
2009,08,23,20,02,17.50
2009,08,23,20,03,17.50
2009,08,23,20,04,17.50
2009,08,23,20,05,17.50
2009,08,23,20,06,17.40
2009,08,23,20,07,17.40
2009,08,23,20,08,17.40
2009,08,23,20,09,17.30
2009,08,23,20,10,17.30
2009,08,23,20,11,17.30
2009,08,23,20,12,17.30
2009,08,23,20,13,17.20
2009,08,23,20,14,17.20
2009,08,23,20,15,17.20
2009,08,23,20,16,17.10
2009,08,23,20,17,17.10
2009,08,23,20,18,17.10
2009,08,23,20,19,17.00
2009,08,23,20,20,17.00
2009,08,23,20,21,16.90
2009,08,23,20,22,16.90
2009,08,23,20,23,16.80
2009,08,23,20,24,16.80
2009,08,23,20,25,16.80
2009,08,23,20,26,16.80
2009,08,23,20,27,16.80
2009,08,23,20,28,16.70
2009,08,23,20,29,16.70
2009,08,23,20,30,16.70
2009,08,23,20,31,16.70
2009,08,23,20,32,16.60
2009,08,23,20,33,16.50
2009,08,23,20,34,16.40
2009,08,23,20,35,16.40
2009,08,23,20,36,16.40
2009,08,23,20,37,16.30
2009,08,23,20,38,16.30
2009,08,23,20,39,16.30
2009,08,23,20,40,16.20
2009,08,23,20,41,16.20
2009,08,23,20,42,16.20
2009,08,23,20,43,16.10
2009,08,23,20,44,16.10
2009,08,23,20,45,16.10
2009,08,23,20,46,16.10
2009,08,23,20,47,16.10
2009,08,23,20,48,16.00
2009,08,23,20,49,15.90
2009,08,23,20,50,15.90
2009,08,23,20,51,15.80
2009,08,23,20,52,15.80
2009,08,23,20,53,15.80
2009,08,23,20,54,15.80
2009,08,23,20,55,15.70
2009,08,23,20,56,15.60
2009,08,23,20,57,15.60
2009,08,23,20,58,15.60
2009,08,23,20,59,15.50
2009,08,23,21,00,15.50
2009,08,23,21,01,15.50
2009,08,23,21,02,15.40
2009,08,23,21,03,15.40
2009,08,23,21,04,15.40
2009,08,23,21,05,15.40
2009,08,23,21,06,15.40
2009,08,23,21,07,15.40
2009,08,23,21,08,15.40
2009,08,23,21,09,15.30
2009,08,23,21,10,15.30
2009,08,23,21,11,15.30
2009,08,23,21,12,15.30
2009,08,23,21,13,15.30
2009,08,23,21,14,15.30
2009,08,23,21,15,15.30
2009,08,23,21,16,15.20
2009,08,23,21,17,15.20
2009,08,23,21,18,15.10
2009,08,23,21,19,15.10
2009,08,23,21,20,15.10
2009,08,23,21,21,15.00
2009,08,23,21,22,15.00
2009,08,23,21,23,15.00
2009,08,23,21,24,15.00
2009,08,23,21,25,15.00
2009,08,23,21,26,15.00
2009,08,23,21,27,15.00
2009,08,23,21,28,15.00
2009,08,23,21,29,15.00
2009,08,23,21,30,14.90
2009,08,23,21,31,14.90
2009,08,23,21,32,14.80
2009,08,23,21,33,14.80